Location: Ostrava
(49.8330°N, 18.2830°E)
Time: 15:52:52
(UTC+02:00)

Cosmos 2219 Rocket - Visible Passes

Search period start: 01 August 2014 00:00
Search period end: 11 August 2014 00:00
Orbit: 830 x 845 km, 71.0° (Epoch: 01 August)

Date Brightness Start Highest point End Pass type
(mag) Time Alt. Az. Time Alt. Az. Time Alt. Az.
01 Aug 2.3 21:23:09 10° NNW 21:28:45 66° ENE 21:34:03 11° SE visible
01 Aug 3.9 23:07:53 10° NW 23:12:13 24° WSW 23:15:47 13° SSW visible
02 Aug 2.4 21:06:54 10° NNW 21:12:29 62° ENE 21:18:02 10° SE visible
02 Aug 3.8 22:51:32 10° NW 22:56:01 25° WSW 23:00:02 12° SSW visible
03 Aug 3.8 22:35:12 10° NW 22:39:49 27° WSW 22:44:20 10° SSW visible
04 Aug 3.7 22:18:53 10° NW 22:23:36 29° WSW 22:28:19 10° SSW visible
05 Aug 3.7 22:02:33 10° NW 22:07:23 31° WSW 22:12:13 10° SSW visible
06 Aug 3.6 21:46:15 10° NW 21:51:11 33° WSW 21:56:07 10° SSW visible
07 Aug 3.6 21:29:56 10° NW 21:34:58 35° WSW 21:39:59 10° S visible
08 Aug 3.5 21:13:38 10° NW 21:18:45 37° WSW 21:23:51 10° S visible
09 Aug 3.4 20:57:20 10° NW 21:02:32 40° WSW 21:07:43 10° S visible
